sat.trackr.live / text

‹ back to catalog

STARLINK-32164

NORAD 60271 · 2024-131S

PAYLOAD ACTIVE UNKNOWN

§ Identity

Operator
Country
US
Launch date
2024-07-27
Launch site
AFETR
Launch vehicle
Mass (kg)
RCS (m²)

Purposes: comms

External: N2YO · Heavens-Above · Gunter

§ Orbital elements

Epoch: 2026-05-25T04:08:47.700384Z

Period
94.11 min
Inclination
53.1610°
Eccentricity
0.0001210
Mean motion
15.30198293 rev/d
Perigee alt
474.4 km
Apogee alt
476.0 km
Semi-major
6,853.4 km
B*
5.8596e-5
RAAN
57.5196°
Arg perigee
82.0084°
Mean anomaly
278.1054°
Rev number
10,332

§ Raw data

STARLINK-321641 60271U 24131S   26145.17277431  .00001377  00000+0  58596-4 0  99912 60271  53.1610  57.5196 0001210  82.0084 278.1054 15.30198293103320

JSON: /api/v1/satellites/60271 · /tle

For live sub-satellite position, see the globe view (requires WebGL).

§ Visibility from observer

Set your observer location to see the next 7 days of passes ≥ 10°. The values pass through the URL so the page stays shareable.

No JS? Fill the form by hand. The geolocation button needs JavaScript.